TimePST,TemperatureF,Dew PointF,Humidity,Sea Level PressureIn,VisibilityMPH,Wind Direction,Wind SpeedMPH,Gust SpeedMPH,PrecipitationIn,Events,Conditions,WindDirDegrees,DateUTC
12:53 AM,53.1,41.0,64,30.12,10.0,Calm,Calm,-,N/A,,Clear,0,2013-02-27 08:53:00
1:53 AM,50.0,39.0,66,30.12,10.0,Calm,Calm,-,N/A,,Clear,0,2013-02-27 09:53:00
2:53 AM,48.9,39.0,69,30.14,10.0,Calm,Calm,-,N/A,,Clear,0,2013-02-27 10:53:00
4:53 AM,48.0,30.0,50,30.16,10.0,North,6.9,-,N/A,,Clear,10,2013-02-27 12:53:00
5:53 AM,50.0,26.1,39,30.16,10.0,WNW,4.6,-,N/A,,Clear,300,2013-02-27 13:53:00
6:53 AM,48.9,26.1,41,30.19,10.0,NW,4.6,-,N/A,,Clear,320,2013-02-27 14:53:00
7:53 AM,57.0,27.0,32,30.21,10.0,North,8.1,-,N/A,,Clear,350,2013-02-27 15:53:00
8:53 AM,63.0,25.0,24,30.23,10.0,NNW,3.5,-,N/A,,Clear,340,2013-02-27 16:53:00
9:53 AM,69.1,23.0,18,30.22,10.0,Calm,Calm,-,N/A,,Clear,0,2013-02-27 17:53:00
10:53 AM,73.9,18.0,12,30.22,10.0,NE,4.6,-,N/A,,Clear,40,2013-02-27 18:53:00
11:53 AM,73.9,17.1,12,30.22,10.0,WNW,3.5,-,N/A,,Clear,300,2013-02-27 19:53:00
12:53 PM,75.0,18.0,12,30.19,10.0,WSW,5.8,-,N/A,,Clear,240,2013-02-27 20:53:00
1:53 PM,75.0,19.9,13,30.18,10.0,SW,8.1,-,N/A,,Clear,220,2013-02-27 21:53:00
2:53 PM,75.0,18.0,12,30.16,10.0,SSW,10.4,-,N/A,,Clear,210,2013-02-27 22:53:00
3:53 PM,73.9,18.0,12,30.17,10.0,WSW,8.1,-,N/A,,Clear,240,2013-02-27 23:53:00
4:53 PM,71.1,21.0,15,30.18,10.0,WNW,10.4,-,N/A,,Clear,300,2013-02-28 00:53:00
5:53 PM,68.0,19.9,16,30.18,10.0,WNW,8.1,-,N/A,,Clear,290,2013-02-28 01:53:00
6:53 PM,62.1,36.0,38,30.20,10.0,NNW,4.6,-,N/A,,Clear,340,2013-02-28 02:53:00
7:53 PM,61.0,37.0,41,30.22,10.0,Calm,Calm,-,N/A,,Clear,0,2013-02-28 03:53:00
8:53 PM,59.0,37.0,44,30.24,10.0,Calm,Calm,-,N/A,,Clear,0,2013-02-28 04:53:00
9:53 PM,57.0,39.0,51,30.26,10.0,Calm,Calm,-,N/A,,Clear,0,2013-02-28 05:53:00
11:53 PM,54.0,39.9,59,30.26,10.0,West,3.5,-,N/A,,Clear,280,2013-02-28 07:53:00